Terminal Aerodrome Forecast
Issued by NWS Sterling, VA

Current Version | Previous Version | Text Only | Print | Product List | Glossary Off
Versions: 1 2 3 4 5 6 7 8 9 10 11 12 13 14 15 16 17 18 19 20 21 22 23 24 25 26 27 28 29

000
FTUS41 KLWX 011725
TAFDCA
TAF
KDCA 011725Z 0118/0218 18010KT P6SM VCTS BKN050CB
     FM012100 VRB04KT 6SM -SHRA VCTS BKN050CB
     FM020200 03005KT 6SM -SHRA BKN025 OVC050
     FM020600 35005KT 5SM -SHRA BR OVC015
     FM020900 35005KT 5SM -SHRA BR BKN008 OVC015
     FM021400 01007KT 6SM -SHRA OVC015=

USA.gov is the U.S. government's official web portal to all federal, state and local government web resources and services.